Weather History for Minneapolis Flying Cloud, MN

Change the Weather History Date:

Wednesday, October 13, 2010

  Actual Average Record
Temperature  
Mean Temperature 56 °F -  
Max Temperature 66 °F 58 °F 79 °F (2000)
Min Temperature 46 °F 38 °F 28 °F (2002)
Degree Days  
Heating Degree Days 9    
Growing Degree Days 6 (Base 50)    
Moisture  
Dew Point 34 °F    
Average Humidity 47    
Maximum Humidity 71    
Minimum Humidity 27    
Precipitation  
Precipitation 0.00 in - - ()
Sea Level Pressure  
Sea Level Pressure 30.19 in    
Wind  
Wind Speed 6 mph (WNW)    
Max Wind Speed 13 mph    
Max Gust Speed 21 mph    
Visibility 10 miles    
Events      
Averages and records for this station are not official NWS values.
T = Trace of Precipitation, MM = Missing Value Source: NWS Daily Summary

Daily Weather History Graph

Daily Weather History Graph

Search for Another Location

Airport:

Trip Planner

Search our weather history database for the weather conditions in past years. The results will help you decide how hot, cold, wet, or windy it might be!

Date:

Astronomy

Oct. 13, 2010 Rise Set
Actual Time 7:26 AM CDT 6:32 PM CDT
Civil Twilight 6:57 AM CDT 7:01 PM CDT
Nautical Twilight 6:23 AM CDT 7:35 PM CDT
Astronomical Twilight 5:49 AM CDT 8:09 PM CDT
Moon 1:59 PM CDT (10/13) 11:00 PM CDT (10/13)
Length of Visible Light 12h 04m
Length of Day
11h 05m
Waxing Crescent, 38% of the Moon is Illuminated
Oct 13
Waxing Crescent
Oct 14
First Quarter
Oct 22
Full
Oct 30
Last Quarter
Nov 5
New

Hourly Weather History & Observations

Time (CDT) Temp. Windchill Dew Point Humidity Pressure Visibility Wind Dir Wind Speed Gust Speed Precip Events Conditions
12:53 AM 53.1 °F - 37.0 °F 55% 30.14 in 10.0 mi WNW 6.9 mph - N/A   Clear
1:53 AM 52.0 °F - 37.0 °F 57% 30.15 in 10.0 mi WNW 6.9 mph - N/A   Clear
2:53 AM 48.9 °F - 37.0 °F 64% 30.16 in 10.0 mi WNW 5.8 mph - N/A   Clear
3:53 AM 48.9 °F - 37.0 °F 64% 30.16 in 10.0 mi WNW 4.6 mph - N/A   Clear
4:53 AM 46.9 °F - 37.0 °F 68% 30.17 in 10.0 mi WNW 6.9 mph - N/A   Clear
5:53 AM 46.0 °F 43.9 °F 37.0 °F 71% 30.19 in 10.0 mi West 4.6 mph - N/A   Clear
6:53 AM 46.0 °F 44.8 °F 36.0 °F 68% 30.20 in 10.0 mi WNW 3.5 mph - N/A   Clear
8:53 AM 50.0 °F - 37.9 °F 63% 30.22 in 10.0 mi Calm Calm - N/A   Clear
9:53 AM 55.0 °F - 37.9 °F 53% 30.23 in 10.0 mi WNW 3.5 mph - N/A   Clear
10:53 AM 59.0 °F - 37.9 °F 46% 30.23 in 10.0 mi West 5.8 mph - N/A   Clear
11:53 AM 63.0 °F - 36.0 °F 37% 30.22 in 10.0 mi WNW 6.9 mph - N/A   Clear
12:53 PM 64.9 °F - 34.0 °F 32% 30.21 in 10.0 mi NNW 8.1 mph 18.4 mph N/A   Clear
1:53 PM 64.9 °F - 32.0 °F 29% 30.19 in 10.0 mi WNW 10.4 mph - N/A   Clear
2:53 PM 66.0 °F - 32.0 °F 28% 30.18 in 10.0 mi WNW 12.7 mph 16.1 mph N/A   Partly Cloudy
3:53 PM 66.0 °F - 30.9 °F 27% 30.17 in 10.0 mi NW 8.1 mph 20.7 mph N/A   Clear
4:53 PM 64.0 °F - 28.9 °F 27% 30.17 in 10.0 mi NW 10.4 mph - N/A   Clear
5:53 PM 63.0 °F - 28.9 °F 28% 30.18 in 10.0 mi West 11.5 mph 19.6 mph N/A   Clear
6:53 PM 59.0 °F - 30.0 °F 33% 30.19 in 10.0 mi WNW 6.9 mph - N/A   Clear
7:53 PM 57.0 °F - 30.0 °F 36% 30.19 in 10.0 mi WNW 5.8 mph - N/A   Clear
8:53 PM 54.0 °F - 30.9 °F 41% 30.20 in 10.0 mi WNW 5.8 mph - N/A   Clear
10:53 PM 48.9 °F - 33.1 °F 54% 30.19 in 10.0 mi WSW 3.5 mph - N/A   Clear
11:53 PM 46.9 °F - 32.0 °F 56% 30.18 in 10.0 mi WSW 5.8 mph - N/A   Clear